Vero Beach, FL

9:19 PM EDT on April 23, 2018 (GMT -0400)
Vero Beach Municipal

Weather History for KVRB - January, 2014

Change the Weather History Date:

Friday, January 31, 2014

  Actual Average Record
Temperature  
Mean Temperature 68 °F 63 °F  
Max Temperature 76 °F 73 °F 88 °F (1991)
Min Temperature 60 °F 52 °F 26 °F (1966)
Degree Days  
Heating Degree Days 0 4  
Month to date heating degree days 172 153  
Since 1 July heating degree days 201 287  
Cooling Degree Days 3 2  
Month to date cooling degree days 68 61  
Year to date cooling degree days 68 61  
Growing Degree Days 18 (Base 50)    
Moisture  
Dew Point 65 °F    
Average Humidity 90    
Maximum Humidity 100    
Minimum Humidity 79    
Precipitation  
Precipitation 0.07 in 0.07 in 1.23 in (2004)
Month to date precipitation 4.49 2.50  
Year to date precipitation 4.49 2.50  
Sea Level Pressure  
Sea Level Pressure 30.07 in    
Wind  
Wind Speed 5 mph (North)    
Max Wind Speed 13 mph    
Max Gust Speed 16 mph    
Visibility 8 miles    
Events Rain    
T = Trace of Precipitation, MM = Missing Value Source: NWS Daily Summary

Daily Weather History Graph

Daily Weather History Graph

Search for Another Location

Airport or City:

Astronomy

Jan. 31, 2014 Rise Set
Actual Time 7:08 AM EST 6:01 PM EST
Civil Twilight 6:44 AM EST 6:26 PM EST
Nautical Twilight 6:16 AM EST 6:54 PM EST
Astronomical Twilight 5:48 AM EST 7:22 PM EST
Moon 7:26 AM EST (1/31) 7:12 PM EST (1/31)
Length of Visible Light 11h 42m
Length of Day
10h 53m
New Moon, 1% of the Moon is Illuminated
Jan 31
New Moon
Feb 6
First Quarter
Feb 14
Full
Feb 22
Last Quarter
Mar 1
New

Hourly Weather History & Observations

Time (EST) Temp. Dew Point Humidity Pressure Visibility Wind Dir Wind Speed Gust Speed Precip Events Conditions
12:45 AM 60.8 °F 60.8 °F 100% 30.08 in 4.0 mi NW 3.5 mph - 0.01 in   Overcast
12:53 AM 61.0 °F 60.1 °F 97% 30.08 in 5.0 mi Calm Calm - 0.01 in   Overcast
1:53 AM 61.0 °F 60.1 °F 97% 30.07 in 6.0 mi NNW 6.9 mph - N/A   Overcast
2:27 AM 60.8 °F 60.8 °F 100% 30.07 in 7.0 mi NNW 5.8 mph - N/A   Overcast
2:53 AM 61.0 °F 60.1 °F 97% 30.07 in 6.0 mi NNW 5.8 mph - 0.00 in Rain Light Rain
3:49 AM 60.8 °F 60.8 °F 100% 30.06 in 6.0 mi North 5.8 mph - 0.01 in   Overcast
3:53 AM 62.1 °F 61.0 °F 96% 30.06 in 6.0 mi North 5.8 mph - 0.01 in   Overcast
4:53 AM 62.1 °F 61.0 °F 96% 30.06 in 8.0 mi NNW 4.6 mph - 0.01 in   Overcast
5:03 AM 62.6 °F 60.8 °F 94% 30.06 in 8.0 mi North 5.8 mph - N/A   Overcast
5:53 AM 62.1 °F 61.0 °F 96% 30.07 in 5.0 mi North 6.9 mph - 0.01 in Rain Light Rain
6:13 AM 62.6 °F 60.8 °F 94% 30.07 in 6.0 mi North 9.2 mph - 0.02 in Rain Light Rain
6:28 AM 62.6 °F 60.8 °F 94% 30.07 in 7.0 mi North 6.9 mph - 0.02 in Rain Light Rain
6:40 AM 62.6 °F 60.8 °F 94% 30.08 in 7.0 mi NNW 5.8 mph - 0.02 in Rain Light Rain
6:53 AM 62.1 °F 61.0 °F 96% 30.09 in 8.0 mi North 6.9 mph - 0.03 in   Overcast
7:21 AM 62.6 °F 60.8 °F 94% 30.09 in 5.0 mi North 6.9 mph - N/A   Overcast
7:53 AM 63.0 °F 62.1 °F 97% 30.09 in 5.0 mi North 6.9 mph - N/A   Overcast
8:53 AM 64.9 °F 64.0 °F 97% 30.10 in 7.0 mi North 5.8 mph - N/A   Overcast
9:53 AM 66.9 °F 66.0 °F 97% 30.12 in 2.0 mi NNE 9.2 mph - N/A   Overcast
10:02 AM 69.8 °F 66.2 °F 88% 30.12 in 4.0 mi NNE 10.4 mph - N/A   Overcast
10:53 AM 70.0 °F 69.1 °F 97% 30.12 in 7.0 mi NNE 9.2 mph - N/A   Overcast
11:53 AM 72.0 °F 70.0 °F 93% 30.10 in 10.0 mi NE 4.6 mph - N/A   Overcast
12:53 PM 73.0 °F 69.1 °F 87% 30.08 in 10.0 mi NNW 4.6 mph - N/A   Overcast
1:53 PM 73.0 °F 69.1 °F 87% 30.05 in 10.0 mi NNW 6.9 mph - N/A   Overcast
2:53 PM 73.9 °F 68.0 °F 82% 30.05 in 10.0 mi NE 5.8 mph - N/A   Overcast
3:35 PM 75.2 °F 68.0 °F 78% 30.05 in 10.0 mi NE 6.9 mph - N/A   Mostly Cloudy
3:53 PM 73.9 °F 66.9 °F 79% 30.05 in 10.0 mi NNE 6.9 mph - N/A   Mostly Cloudy
4:53 PM 72.0 °F 68.0 °F 87% 30.05 in 10.0 mi NNE 5.8 mph - N/A   Mostly Cloudy
5:10 PM 71.6 °F 66.2 °F 83% 30.05 in 10.0 mi NE 4.6 mph - N/A   Clear
5:53 PM 70.0 °F 66.9 °F 90% 30.05 in 10.0 mi NNE 5.8 mph - N/A   Clear
6:39 PM 69.8 °F 68.0 °F 94% 30.05 in 10.0 mi Calm Calm - N/A   Mostly Cloudy
6:50 PM 69.8 °F 68.0 °F 94% 30.06 in 10.0 mi Calm Calm - N/A   Overcast
6:53 PM 69.1 °F 68.0 °F 96% 30.06 in 10.0 mi Calm Calm - N/A   Overcast
7:53 PM 70.0 °F 68.0 °F 93% 30.08 in 10.0 mi North 4.6 mph - N/A   Mostly Cloudy
8:53 PM 71.1 °F 69.1 °F 93% 30.08 in 10.0 mi North 3.5 mph - N/A   Mostly Cloudy
9:00 PM 71.6 °F 69.8 °F 94% 30.08 in 10.0 mi Calm Calm - N/A   Overcast
9:53 PM 70.0 °F 69.1 °F 97% 30.09 in 10.0 mi Calm Calm - N/A   Overcast
10:53 PM 70.0 °F 68.0 °F 93% 30.09 in 9.0 mi Calm Calm - N/A   Overcast
11:53 PM 70.0 °F 68.0 °F 93% 30.09 in 8.0 mi Calm Calm - N/A   Overcast